Location: ??? ?????
(30.6482°N, 60.5850°E)
Time: 05:39:03
(UTC+00:00)

Aureole 1 Rocket - Pass Details

Date: 09 April 2020
Orbit: 379 x 1379 km, 73.9° (Epoch: 05 June)

Event Time Altitude Azimuth Distance (km) Brightness Sun altitude
Rises 15:04:35 0° 194° (SSW) 4,352 7.4 -9.8°
Reaches altitude 10° 15:07:35 10° 194° (SSW) 3,315 6.8 -10.4°
Maximum altitude 15:15:38 89° 101° (E) 1,146 4.4 -12.1°
Drops below altitude 10° 15:22:07 10° 16° (NNE) 2,700 6.3 -13.4°
Sets 15:24:22 0° 17° (NNE) 3,510 6.9 -13.9°
